Torna al catalogo

STARLINK-34223

AttivoComunicazioniVLEO
NORAD 64336·PAYLOAD·🇺🇸 United States

Lanciato Jun 10, 2025 da Cape Canaveral Space Force Station

Loading…

Prossimi Passaggi (prossime 24 ore)

TLE

AggiornatoSource: CelesTrak SupGP

Epoca: Sep 14, 2026, 21:36 UTC

1 64336C 25124V   26257.90048611 -.00044706  00000+0 -16195-2 0  2570
2 64336  43.0008 129.3730 0001375 270.2312   6.8978 15.27594675    17

Traccia STARLINK-34223 in tempo reale con AllMySat

Download on the App Store